sat.trackr.live / text

‹ back to catalog

STARLINK-37042

NORAD 68266 · 2026-055E

PAYLOAD ACTIVE UNKNOWN

§ Identity

Operator
Country
US
Launch date
2026-03-19
Launch site
AFETR
Launch vehicle
Mass (kg)
RCS (m²)

Purposes: comms

External: N2YO · Heavens-Above · Gunter

§ Orbital elements

Epoch: 2026-05-24T15:53:00.922272Z

Period
93.79 min
Inclination
53.1579°
Eccentricity
0.0000544
Mean motion
15.35408488 rev/d
Perigee alt
459.3 km
Apogee alt
460.1 km
Semi-major
6,837.8 km
B*
3.1730e-4
RAAN
325.6016°
Arg perigee
130.3612°
Mean anomaly
229.7439°
Rev number
1,157

§ Raw data

STARLINK-370421 68266U 26055E   26144.66181623  .00010707  00000+0  31730-3 0  99972 68266  53.1579 325.6016 0000544 130.3612 229.7439 15.35408488 11578

JSON: /api/v1/satellites/68266 · /tle

For live sub-satellite position, see the globe view (requires WebGL).

§ Visibility from observer

Set your observer location to see the next 7 days of passes ≥ 10°. The values pass through the URL so the page stays shareable.

No JS? Fill the form by hand. The geolocation button needs JavaScript.